Vorticity
3 2 3 2 3 3 4 2 6 4 7 8 6 6 -1 5 15 16 -1 4 9 7 7 8 6 5 5 7 7 7 8 8 7 7 7 7 7 7 7 7 7 6 6
4 3 2 2 3 4 3 3 6 1 4 12 3 14 6 0 20 33 6 3 2 4 4 8 6 5 7 7 7 7 7 8 7 7 7 7 8 7 8 7 6 6 5
5 4 3 3 4 5 3 2 3 3 2 9 14 8 5 21 27 16 7 4 5 4 3 10 9 5 6 8 6 7 7 8 8 7 8 8 8 7 7 7 6 5 4
12 6 4 3 4 4 5 3 3 3 3 2 12 15 4 -2 5 40 -2 5 4 2 5 7 10 5 8 8 6 6 7 8 8 8 8 8 8 5 7 6 5 4 4
0 12 7 5 4 4 3 6 4 5 3 3 4 13 6 10 -2 1 25 -6 3 5 7 7 8 5 10 9 6 7 8 8 6 5 10 8 7 5 6 5 4 3 3
8 14 10 9 6 5 4 4 7 5 5 4 2 7 12 14 18 -20 10 6 0 2 6 10 6 7 10 8 6 7 8 6 7 8 6 7 5 6 5 4 3 4 5
22 14 19 17 9 6 6 6 6 8 6 3 3 -3 11 14 2 23 6 11 10 11 8 5 4 6 10 7 6 8 6 6 5 4 6 6 6 5 4 5 6 7 8
8 9 -4 6 14 10 8 7 12 9 2 5 1 2 -1 9 16 -1 -0 25 18 0 9 8 4 7 8 8 6 8 6 4 4 6 5 6 6 5 6 7 8 8 7
11 3 3 -2 13 13 6 6 6 11 8 6 2 2 0 4 25 8 7 28 9 9 6 7 4 7 7 6 6 6 5 4 7 5 5 6 6 7 8 8 7 6 7
4 4 2 1 -6 14 9 10 9 7 6 3 6 9 2 7 6 3 12 12 19 3 5 6 7 6 7 5 7 7 5 5 5 5 4 5 7 7 7 7 7 8 6
3 -0 5 3 9 22 16 8 15 9 1 7 2 10 3 -1 8 10 22 -12 15 33 16 -10 18 7 7 5 6 7 6 4 5 5 7 7 6 5 5 6 7 6 4
8 14 7 14 17 14 16 15 8 9 6 8 5 3 3 1 4 8 4 29 14 0 -9 18 29 -1 5 7 6 7 7 5 4 6 7 5 5 5 7 8 8 8 6
20 12 15 11 12 14 17 12 10 11 7 7 6 5 -1 9 0 -3 7 16 -3 2 5 15 -0 10 -1 7 6 6 6 6 5 5 7 5 4 6 8 6 -6 8 9
23 13 10 13 12 13 12 14 14 11 8 6 6 4 8 -3 8 -1 14 11 7 -3 7 2 26 19 14 0 7 7 5 5 5 4 7 5 4 6 3 -0 -9 -2 2
23 13 9 12 11 12 7 11 9 8 10 8 10 7 6 2 4 6 -4 15 16 5 8 29 21 5 1 34 1 7 6 7 5 5 7 6 1 4 3 -1 -2 -8 -5
14 22 12 12 15 7 7 2 10 8 15 10 8 5 5 4 10 -4 4 14 11 9 -5 21 17 -3 7 31 2 9 6 10 7 6 5 7 2 1 -0 -0 1 3 6
9 10 21 12 10 11 18 21 12 2 11 11 10 2 2 6 8 2 -3 19 12 12 4 14 -3 9 21 16 9 9 6 7 10 8 6 5 5 -1 -3 4 2 -8 28
11 13 8 20 11 10 21 14 9 11 26 9 10 2 4 3 4 7 14 28 5 20 17 -12 2 46 -27 36 6 6 12 6 9 10 11 7 5 6 -0 2 2 7 1
7 13 13 10 17 10 28 3 11 -3 28 17 14 3 2 4 5 9 8 12 16 4 -5 28 37 -1 39 15 22 0 4 9 12 13 8 7 8 7 4 5 0 -1 3
8 10 12 13 15 15 -1 10 6 14 4 22 17 6 3 5 6 9 14 8 8 7 -14 9 -1 5 33 3 40 15 -2 2 2 10 20 7 10 10 3 -8 9 18 -18
12 12 13 11 10 19 15 19 -6 3 6 10 14 5 6 5 6 7 9 11 6 6 10 34 7 13 -0 34 24 11 13 -8 2 4 7 10 10 1 6 7 25 -11 23
20 13 10 13 9 10 21 16 14 0 5 20 10 8 8 8 7 9 12 12 5 7 -7 22 26 24 17 6 38 7 9 2 3 -0 5 2 9 8 3 -4 39 13 19
12 13 13 11 14 10 18 28 6 20 -1 -4 17 9 12 5 6 6 14 10 10 8 4 5 16 6 34 3 28 21 5 49 4 1 11 -1 17 -7 10 -1 3 -2 6
15 13 10 11 11 15 12 25 25 2 -1 15 -1 8 10 9 6 11 14 13 11 12 6 11 -3 11 2 23 -10 19 35 37 2 -0 -14 10 13 4 10 9 -3 8 17
9 10 11 10 13 7 20 16 49 17 1 14 -29 -11 4 7 7 15 13 15 7 3 13 3 18 4 27 -1 35 30 1 15 -8 10 8 11 11 -9 26 1 -17 12 31
7 8 13 13 12 3 7 19 9 41 8 8 24 9 0 6 13 21 -0 18 7 16 15 14 -7 6 10 -13 30 49 -2 -3 18 8 -12 18 14 -31 33 14 12 1 29
Height
3139 3141 3142 3143 3144 3144 3145 3144 3142 3141 3141 3141 3142 3141 3143 3143 3141 3141 3145 3148 3151 3153 3154 3155 3156 3157 3157 3157 3159 3160 3162 3163 3164 3165 3166 3168 3169 3170 3171 3172 3174 3175 3176
3136 3137 3139 3140 3141 3141 3142 3142 3141 3140 3139 3140 3139 3139 3141 3140 3139 3138 3142 3145 3149 3150 3152 3152 3153 3154 3155 3156 3157 3159 3160 3162 3163 3163 3165 3167 3168 3169 3171 3172 3173 3174 3176
3132 3133 3135 3136 3137 3138 3138 3139 3139 3138 3138 3138 3137 3137 3138 3138 3137 3138 3139 3142 3146 3147 3149 3150 3151 3152 3153 3154 3155 3157 3159 3160 3162 3163 3164 3166 3167 3168 3171 3171 3172 3173 3174
3126 3127 3129 3131 3132 3133 3134 3134 3135 3135 3135 3136 3135 3134 3135 3136 3136 3136 3138 3140 3142 3145 3146 3146 3148 3150 3151 3152 3153 3154 3157 3158 3160 3162 3163 3165 3165 3166 3169 3170 3171 3172 3173
3118 3120 3122 3125 3126 3127 3128 3129 3130 3130 3131 3132 3131 3131 3131 3132 3134 3134 3135 3137 3139 3141 3142 3143 3145 3147 3148 3150 3150 3152 3154 3156 3158 3160 3162 3163 3164 3165 3167 3168 3169 3170 3171
3111 3112 3114 3117 3119 3120 3122 3123 3125 3126 3128 3127 3127 3126 3127 3127 3129 3129 3130 3132 3135 3136 3138 3139 3141 3144 3146 3147 3148 3150 3152 3154 3156 3158 3160 3161 3162 3164 3166 3166 3167 3168 3169
3103 3105 3107 3109 3111 3113 3116 3117 3119 3119 3121 3122 3122 3121 3122 3122 3123 3124 3124 3126 3129 3132 3134 3136 3138 3140 3143 3145 3145 3148 3150 3152 3155 3156 3157 3158 3160 3162 3163 3164 3165 3165 3166
3097 3098 3100 3103 3105 3106 3106 3110 3112 3113 3114 3117 3116 3117 3116 3117 3118 3119 3120 3120 3123 3126 3129 3132 3133 3136 3139 3141 3143 3145 3147 3149 3152 3153 3154 3157 3158 3159 3160 3161 3162 3162 3162
3087 3090 3093 3094 3097 3098 3099 3101 3104 3106 3108 3109 3110 3112 3111 3110 3112 3115 3116 3117 3118 3121 3125 3127 3129 3131 3134 3137 3139 3141 3144 3147 3149 3150 3152 3153 3155 3156 3157 3158 3158 3158 3159
3080 3081 3083 3085 3088 3090 3091 3092 3096 3098 3100 3103 3104 3104 3105 3106 3106 3108 3112 3113 3115 3118 3121 3122 3124 3127 3129 3131 3135 3137 3140 3143 3146 3147 3148 3150 3151 3153 3153 3154 3154 3155 3156
3071 3073 3074 3076 3077 3079 3082 3084 3087 3089 3092 3095 3097 3099 3100 3100 3101 3103 3106 3108 3110 3112 3115 3117 3117 3121 3124 3126 3129 3132 3135 3139 3141 3142 3144 3145 3147 3148 3150 3150 3151 3152 3152
3061 3064 3065 3065 3066 3069 3072 3074 3079 3082 3083 3087 3090 3091 3092 3094 3096 3097 3099 3102 3104 3106 3109 3110 3111 3115 3118 3121 3123 3127 3130 3133 3136 3138 3139 3141 3143 3144 3145 3147 3148 3148 3147
3051 3053 3054 3055 3056 3060 3063 3066 3069 3073 3075 3079 3083 3084 3087 3088 3090 3091 3093 3093 3096 3098 3100 3103 3105 3107 3111 3114 3117 3120 3123 3127 3130 3132 3134 3136 3138 3139 3141 3143 3143 3143 3142
3042 3044 3044 3046 3049 3051 3053 3057 3059 3064 3067 3070 3073 3077 3079 3081 3083 3084 3085 3086 3087 3089 3092 3095 3097 3099 3103 3109 3112 3113 3116 3119 3124 3127 3129 3131 3133 3135 3136 3137 3137 3138 3137
3034 3035 3036 3038 3041 3044 3046 3048 3051 3055 3058 3062 3065 3069 3072 3074 3076 3077 3078 3078 3080 3079 3083 3087 3089 3093 3095 3097 3104 3106 3109 3112 3117 3120 3123 3125 3128 3129 3130 3131 3131 3132 3132
3027 3028 3029 3031 3033 3035 3038 3040 3042 3046 3049 3053 3057 3061 3064 3066 3068 3070 3070 3071 3072 3073 3075 3078 3082 3084 3087 3088 3095 3098 3102 3104 3108 3112 3115 3118 3120 3122 3124 3125 3125 3126 3125
3019 3019 3021 3023 3024 3026 3028 3031 3034 3036 3039 3044 3048 3051 3055 3058 3059 3061 3063 3062 3064 3066 3066 3068 3072 3070 3077 3080 3085 3089 3093 3095 3099 3103 3107 3110 3113 3116 3117 3118 3119 3119 3117
3010 3012 3013 3014 3016 3019 3020 3022 3024 3027 3029 3033 3038 3042 3047 3050 3052 3052 3052 3053 3056 3058 3058 3056 3059 3061 3066 3070 3074 3080 3083 3087 3090 3095 3099 3102 3105 3107 3109 3111 3111 3111 3110
3003 3003 3004 3006 3007 3008 3011 3014 3016 3018 3020 3024 3029 3033 3038 3040 3043 3044 3044 3045 3047 3049 3049 3049 3048 3054 3054 3057 3062 3068 3073 3077 3081 3085 3089 3093 3096 3099 3102 3103 3103 3103 3101
2995 2995 2996 2997 2997 3000 3002 3005 3007 3010 3013 3015 3019 3025 3028 3031 3034 3035 3035 3037 3039 3039 3037 3038 3041 3042 3044 3048 3051 3056 3063 3067 3072 3077 3081 3083 3086 3090 3092 3094 3093 3093 3092
2988 2988 2988 2988 2989 2990 2992 2995 3000 3002 3005 3008 3011 3015 3019 3023 3025 3026 3027 3029 3031 3031 3030 3030 3031 3032 3033 3036 3041 3046 3050 3058 3063 3067 3071 3074 3078 3081 3083 3084 3084 3084 3084
2978 2977 2978 2979 2980 2980 2982 2985 2990 2993 2996 2999 3003 3007 3011 3013 3016 3017 3018 3019 3021 3021 3022 3023 3022 3022 3025 3028 3032 3036 3039 3044 3051 3056 3059 3064 3069 3071 3072 3075 3073 3074 3075
2969 2968 2968 2968 2969 2971 2972 2975 2979 2983 2986 2989 2993 2998 3001 3003 3005 3008 3009 3010 3011 3012 3014 3015 3014 3013 3016 3020 3024 3026 3029 3033 3040 3047 3052 3054 3059 3062 3062 3063 3064 3065 3065
2960 2960 2960 2960 2961 2962 2963 2964 2967 2972 2976 2979 2984 2988 2992 2994 2996 2999 3000 3001 3002 3003 3005 3007 3008 3009 3009 3011 3015 3016 3020 3024 3031 3036 3042 3044 3048 3051 3053 3055 3055 3055 3054
2952 2952 2952 2952 2953 2954 2954 2955 2956 2960 2964 2968 2973 2969 2984 2985 2986 2989 2990 2991 2993 2994 2996 2998 2999 3000 3001 3002 3003 3005 3009 3015 3020 3025 3030 3035 3038 3041 3043 3045 3045 3044 3043
2944 2944 2945 2944 2944 2946 2947 2946 2946 2948 2953 2958 2963 2965 2974 2975 2976 2979 2982 2983 2985 2986 2988 2989 2990 2990 2992 2993 2994 2997 3002 3005 3010 3014 3020 3024 3027 3031 3032 3035 3036 3035 3032